| time (UTC) | temp F | wind direction | speed MPH | gust MPH | rain 1hr in | rain 24hr in | rain mn in | humidity % | barometer mb |
| 20260831221106 | 96 | 168 | 2.0 | 8.0 | 0.02 | 0.35 | 0.29 | 26 | 1006.1 |
| 20260831214107 | 96 | 105 | 1.0 | 3.0 | 0.02 | 0.34 | 0.27 | 26 | 1006.4 |
| 20260831211104 | 95 | 181 | 3.0 | 10.0 | 0.03 | 0.34 | 0.26 | 27 | 1007.1 |
| 20260831204104 | 95 | 193 | 4.0 | 11.0 | 0.02 | 0.34 | 0.24 | 26 | 1007.5 |
| 20260831201102 | 94 | 170 | 3.0 | 8.0 | 0.04 | 0.35 | 0.22 | 28 | 1008.1 |
| 20260831194102 | 94 | 181 | 2.0 | 8.0 | 0.04 | 0.35 | 0.21 | 28 | 1008.5 |
| 20260831191101 | 94 | 164 | 1.0 | 9.0 | 0.03 | 0.36 | 0.18 | 29 | 1008.7 |
| 20260831184100 | 94 | 104 | 1.0 | 4.0 | 0.03 | 0.37 | 0.16 | 28 | 1008.9 |
| 20260831181058 | 92 | 170 | 3.0 | 9.0 | 0.03 | 0.37 | 0.14 | 33 | 1009.8 |
| 20260831174057 | 91 | 175 | 7.0 | 7.0 | 0.06 | 0.38 | 0.13 | 34 | 1010.2 |
| 20260831171056 | 89 | 180 | 3.0 | 10.0 | 0.06 | 0.36 | 0.10 | 39 | 1010.6 |
| 20260831164055 | 87 | 182 | 2.0 | 7.0 | 0.05 | 0.36 | 0.06 | 47 | 1011.1 |
| 20260831161054 | 85 | 183 | 4.0 | 10.0 | 0.02 | 0.34 | 0.02 | 50 | 1011.4 |
| 20260831154053 | 83 | 190 | 3.0 | 6.0 | 0.01 | 0.33 | 0.01 | 54 | 1011.7 |
| 20260831151052 | 80 | 188 | 4.0 | 11.0 | 0.00 | 0.32 | 0.00 | 59 | 1012.5 |
| 20260831144051 | 77 | 193 | 3.0 | 8.0 | 0.00 | 0.33 | 0.00 | 62 | 1012.8 |
| 20260831141050 | 75 | 181 | 3.0 | 7.0 | 0.00 | 0.33 | 0.00 | 63 | 1013.3 |
| 20260831134049 | 72 | 186 | 0.0 | 2.0 | 0.00 | 0.33 | 0.00 | 67 | 1013.5 |
| 20260831131048 | 69 | 216 | 0.0 | 2.0 | 0.00 | 0.33 | 0.00 | 68 | 1013.7 |
| 20260831124048 | 68 | 206 | 0.0 | 0.0 | 0.00 | 0.33 | 0.00 | 70 | 1013.6 |
| 20260831115332 | 69 | 206 | 1.0 | 2.0 | 0.00 | 0.33 | 0.00 | 66 | 1012.9 |
| 20260831112331 | 70 | 193 | 2.0 | 2.0 | 0.00 | 0.33 | 0.00 | 63 | 1012.7 |
| 20260831105330 | 69 | 212 | 0.0 | 0.0 | 0.00 | 0.33 | 0.00 | 67 | 1013.0 |
| 20260831102329 | 71 | 205 | 1.0 | 1.0 | 0.00 | 0.33 | 0.00 | 62 | 1012.5 |
| 20260831095328 | 71 | 205 | 1.0 | 1.0 | 0.00 | 0.33 | 0.00 | 61 | 1012.3 |
| 20260831092327 | 71 | 204 | 1.0 | 1.0 | 0.00 | 0.33 | 0.00 | 61 | 1012.1 |
| 20260831085326 | 73 | 204 | 1.0 | 2.0 | 0.00 | 0.33 | 0.00 | 58 | 1011.6 |
| 20260831082325 | 74 | 188 | 1.0 | 1.0 | 0.00 | 0.33 | 0.00 | 56 | 1011.2 |
| 20260831075324 | 75 | 187 | 2.0 | 3.0 | 0.00 | 0.33 | 0.00 | 53 | 1011.0 |
| 20260831072323 | 77 | 179 | 3.0 | 3.0 | 0.00 | 0.33 | 0.00 | 50 | 1010.6 |
| 20260831065322 | 77 | 174 | 3.0 | 3.0 | 0.00 | 0.33 | 0.00 | 49 | 1010.4 |
| 20260831062321 | 78 | 178 | 3.0 | 3.0 | 0.00 | 0.33 | 0.00 | 47 | 1010.3 |
| 20260831055321 | 78 | 176 | 2.0 | 2.0 | 0.00 | 0.33 | 0.00 | 46 | 1010.2 |
| 20260831052319 | 81 | 186 | 2.0 | 3.0 | 0.00 | 0.33 | 0.00 | 42 | 1009.7 |
| 20260831045318 | 81 | 183 | 2.0 | 2.0 | 0.00 | 0.33 | 0.33 | 42 | 1009.5 |
| 20260831042317 | 82 | 178 | 2.0 | 3.0 | 0.00 | 0.33 | 0.33 | 40 | 1009.2 |
| 20260831035316 | 83 | 178 | 3.0 | 3.0 | 0.00 | 0.33 | 0.33 | 40 | 1009.0 |
| 20260831032315 | 83 | 172 | 2.0 | 2.0 | 0.00 | 0.33 | 0.33 | 38 | 1008.7 |
| 20260831025314 | 83 | 184 | 0.0 | 0.0 | 0.00 | 0.33 | 0.33 | 38 | 1008.4 |
| 20260831022313 | 85 | 167 | 0.0 | 0.0 | 0.00 | 0.33 | 0.33 | 35 | 1007.8 |
| 20260831015312 | 87 | 168 | 0.0 | 0.0 | 0.00 | 0.33 | 0.33 | 33 | 1007.1 |
| 20260831012311 | 90 | 173 | 1.0 | 1.0 | 0.00 | 0.33 | 0.33 | 31 | 1006.2 |
| 20260831005310 | 94 | 174 | 1.0 | 1.0 | 0.01 | 0.33 | 0.33 | 27 | 1005.3 |
| 20260831002309 | 96 | 176 | 2.0 | 2.0 | 0.02 | 0.33 | 0.33 | 26 | 1004.9 |
| 20260830235309 | 97 | 183 | 1.0 | 1.0 | 0.01 | 0.32 | 0.32 | 24 | 1004.6 |
| 20260830232307 | 97 | 168 | 2.0 | 2.0 | 0.02 | 0.33 | 0.31 | 24 | 1004.5 |
| 20260830225306 | 97 | 178 | 2.0 | 4.0 | 0.02 | 0.32 | 0.30 | 23 | 1004.6 |